Tracking 17694 objects as of 30-May-2016
HD Live streaming from Space Station
objects crossing your sky now

SCOUT X-4 DEB


10-day predictions


NORAD ID: 2088
Int'l Code: 1965-093D
Perigee: 665.0 km
Apogee: 776.2 km
Inclination: 59.7 °
Period: 99.1 minutes
Semi major axis: 7091 km
RCS: 0.0298 m2 (small)
Launch date: November 19, 1965
Source: United States (US)
Launch site: WALLOPS ISLAND (WLPIS)

Note: This is SATELLITE DEBRIS
Your satellite tracking list
Your tracking list is empty





NASA's NSSDC Master Catalog

Two Line Element Set (TLE):
1  2088U 65093D   16150.92622904 +.00000193 +00000-0 +81378-4 0  9992
2  2088 059.7207 356.7582 0078380 229.4532 129.9669 14.53749842619475
Source of the keplerian elements: AFSPC

N2YO: 566